Flag for Switzerland Weather past 2 weeks in Winterthur, Switzerland

Now
68 °F

Scattered clouds.


Feels Like: 68 °F
Forecast: 54 / 83 °F
Wind: 5 mph from North

Location: Zurich-Kloten

Current Time: Aug 1, 2014 at 12:21:52 PM

Latest Report: Aug 1, 2014 at 11:50 AM


Visibility: N/A

Pressure: 29.92 "Hg

Humidity: 73%

Dew point: 59 °F

Location of WinterthurLocation

Historic Weather in Winterthur — Graph

°F

Winterthur temperature yesterday

Maximum temperature yesterday: 77 °F (at 3:20 PM)
Minimum temperature yesterday: 61 °F (at 6:50 AM)
Average temperature yesterday: 68 °F

Past Weeks' High & Low Weather Summary

 TemperatureHumidityPressure
High93 °F (Jul 19, 6:50 PM)100% (Jul 18, 3:50 AM)30.21 "Hg (Jul 18, 3:50 AM)
Low54 °F (Jul 19, 4:50 AM)25% (Jul 18, 4:50 PM)29.80 "Hg (Jul 28, 4:20 PM)
Average67 °F79%29.96 "Hg
* Reported Jul 17 11:20 AM — Aug 1 11:20 AM, Winterthur, Weather by CustomWeather, © 2014

Note: Actual official high and low records may vary slightly from our data, if they occured in-between our weather recording intervals... More about our weather records

Advertising

Winterthur weather history for previous 24 hours

 ConditionsComfort  
Time TempWeatherWind HumidityBarometerVisibility
11:20 AM
Aug 1
68 °FPartly sunny.3 mph78%29.92 "HgN/A
10:50 AM66 °FPartly sunny.5 mph83%29.92 "HgN/A
10:20 AM64 °FPartly sunny.2 mph83%29.92 "HgN/A
9:50 AM64 °FSunny.3 mph83%29.92 "Hg10 mi
9:20 AM64 °FPassing clouds.3 mph83%29.92 "HgN/A
8:50 AM63 °FClear.3 mph88%29.92 "Hg6 mi
8:20 AM61 °FClear.2 mph94%29.92 "Hg6 mi
7:50 AM59 °FClear.1 mph100%29.92 "Hg4 mi
7:20 AM57 °FClear.2 mph94%29.92 "Hg4 mi
6:50 AM55 °FFog.2 mph100%29.92 "Hg4 mi
6:20 AM55 °FFog.2 mph100%29.92 "Hg5 mi
5:50 AM54 °FClear.3 mph100%29.92 "Hg5 mi
5:20 AM55 °FFog.2 mph100%29.92 "HgN/A
4:50 AM57 °FFog.1 mph94%29.92 "HgN/A
4:20 AM57 °FClear.3 mph94%29.92 "Hg10 mi
3:50 AM59 °FClear.3 mph94%29.95 "Hg10 mi
3:20 AM59 °FClear.5 mph94%29.95 "Hg10 mi
2:50 AM57 °FClear.3 mph94%29.95 "Hg10 mi
1:50 AM59 °FClear.2 mph94%29.95 "Hg10 mi
1:20 AM59 °FClear.2 mph94%29.95 "Hg10 mi
12:50 AM59 °FClear.2 mph94%29.95 "Hg10 mi
12:20 AM61 °FClear.2 mph88%29.95 "Hg10 mi
11:50 PM
Jul 31
63 °FClear.2 mph88%29.95 "Hg10 mi
11:20 PM63 °FClear.3 mph88%29.95 "Hg10 mi
10:50 PM63 °FClear.3 mph88%29.95 "Hg10 mi
10:20 PM64 °FClear.3 mph83%29.95 "Hg10 mi
9:50 PM64 °FSunny.3 mph83%29.95 "Hg10 mi
9:20 PM68 °FPassing clouds.3 mph73%29.95 "HgN/A
8:50 PM70 °FSunny.1 mph69%29.95 "Hg10 mi
8:20 PM73 °FPassing clouds.3 mph57%29.95 "HgN/A
7:50 PM75 °FPassing clouds.3 mph54%29.95 "HgN/A
7:20 PM75 °FPassing clouds.7 mph54%29.95 "HgN/A
6:50 PM75 °FPassing clouds.9 mph54%29.95 "HgN/A
6:20 PM75 °FPassing clouds.8 mph54%29.95 "HgN/A
5:50 PM77 °FPassing clouds.7 mph54%29.95 "HgN/A
5:20 PM77 °FPassing clouds.6 mph54%29.95 "HgN/A
4:50 PM75 °FPassing clouds.8 mph57%29.98 "HgN/A
4:20 PM77 °FPassing clouds.7 mph54%29.98 "HgN/A
3:50 PM75 °FPassing clouds.8 mph54%29.98 "HgN/A
3:20 PM77 °FPassing clouds.8 mph57%29.98 "HgN/A
2:50 PM75 °FScattered clouds.7 mph61%29.98 "HgN/A
2:20 PM73 °FPassing clouds.9 mph61%29.98 "HgN/A
1:50 PM73 °FPassing clouds.7 mph61%30.01 "HgN/A
1:20 PM73 °FPassing clouds.7 mph65%30.01 "HgN/A
12:50 PM73 °FScattered clouds.6 mph69%30.01 "HgN/A
12:20 PM70 °FScattered clouds.7 mph69%30.01 "HgN/A
Weather by CustomWeather, © 2014

See weather overviewHow to use our weather pages